Flight Track Log - Related Links

Times and Time Zones

All times are in EDT time to prevent confusion due to time zone crossing. See the DAL268 flight status page for this flight to view local times or setup timezone preferences in your user account.

Time Position Orientation Groundspeed Altitude Reporting Facility
EDT Latitude Longitude Course Direction KTS MPH feet Rate Location/Type
Sat 14:28:42 37.6140 -122.3640 360° North 86 99  Level FlightAware ADS-B
Sat 14:29:10 37.6233 -122.3860 298° West 178 205 200 882 Climbing FlightAware ADS-B
Sat 14:29:16 37.6258 -122.3920 298° West 178 205 500 3,000 Climbing FlightAware ADS-B
Sat 14:29:20 37.6276 -122.3940 319° Northwest 176 203 700 3,333 Climbing FlightAware ADS-B
Sat 14:29:25 37.6305 -122.3980 312° West 181 208 1,000 3,000 Climbing FlightAware ADS-B
Sat 14:29:30 37.6341 -122.4000 336° Northwest 179 206 1,200 3,000 Climbing FlightAware ADS-B
Sat 14:29:35 37.6386 -122.4020 341° North 180 207 1,500 3,333 Climbing FlightAware ADS-B
Sat 14:29:39 37.6413 -122.4020 360° North 181 208 1,700 3,000 Climbing FlightAware ADS-B
Sat 14:29:43 37.6452 -122.4010 11° North 182 209 1,900 3,429 Climbing FlightAware ADS-B
Sat 14:29:46 37.6476 -122.4000 18° North 181 208 2,100 2,667 Climbing FlightAware ADS-B
Sat 14:29:52 37.6517 -122.3960 38° Northeast 183 211 2,300 1,800 Climbing FlightAware ADS-B
Sat 14:29:56 37.6542 -122.3940 32° Northeast 185 213 2,400 1,636 Climbing FlightAware ADS-B
Sat 14:30:03 37.6580 -122.3870 56° Northeast 192 221 2,600 2,182 Climbing FlightAware ADS-B
Sat 14:30:07 37.6598 -122.3840 53° Northeast 195 224 2,800 2,286 Climbing FlightAware ADS-B
Sat 14:30:24 37.6674 -122.3670 61° Northeast 193 222 3,400 1,800 Climbing FlightAware ADS-B
Sat 14:30:37 37.6743 -122.3540 56° Northeast 210 242 3,700 1,333 Climbing FlightAware ADS-B
Sat 14:30:42 37.6771 -122.3490 55° Northeast 214 246 3,800 1,500 Climbing FlightAware ADS-B
Sat 14:30:45 37.6792 -122.3460 49° Northeast 219 252 3,900 1,500 Climbing FlightAware ADS-B
Sat 14:30:50 37.6830 -122.3410 46° Northeast 225 259 4,000 1,000 Climbing FlightAware ADS-B
Sat 14:30:57 37.6883 -122.3360 37° Northeast 234 269 4,100 1,364 Climbing FlightAware ADS-B
Sat 14:31:12 37.7022 -122.3230 36° Northeast 251 289 4,500 1,800 Climbing FlightAware ADS-B
Sat 14:31:37 37.7274 -122.3000 36° Northeast 271 312 5,300 1,902 Climbing FlightAware ADS-B
Sat 14:31:53 37.7436 -122.2850 36° Northeast 288 331 5,800 2,323 Climbing FlightAware ADS-B
Sat 14:32:08 37.7605 -122.2680 38° Northeast 295 339 6,500 2,727 Climbing FlightAware ADS-B
Sat 14:32:26 37.7795 -122.2500 37° Northeast 297 342 7,300 2,824 Climbing FlightAware ADS-B
Sat 14:32:42 37.7977 -122.2320 38° Northeast 300 345 8,100 2,903 Climbing FlightAware ADS-B
Sat 14:32:57 37.8118 -122.2110 50° Northeast 310 357 8,800 2,609 Climbing FlightAware ADS-B
Sat 14:33:05 37.8177 -122.1990 58° Northeast 311 358 9,100 2,308 Climbing FlightAware ADS-B
Sat 14:33:10 37.8204 -122.1920 64° Northeast 312 359 9,300 2,500 Climbing FlightAware ADS-B
Sat 14:33:17 37.8241 -122.1800 69° East 314 361 9,600 3,000 Climbing FlightAware ADS-B
Sat 14:33:20 37.8257 -122.1730 74° East 315 362 9,800 2,824 Climbing FlightAware ADS-B
Sat 14:33:51 37.8378 -122.1190 74° East 320 368 11,200 1,967 Climbing FlightAware ADS-B
Sat 14:34:21 37.8501 -122.0620 75° East 343 395 11,800 1,300 Climbing FlightAware ADS-B
Sat 14:34:51 37.8631 -122.0010 75° East 366 421 12,500 1,700 Climbing FlightAware ADS-B
Sat 14:35:21 37.8769 -121.9380 74° East 372 428 13,500 2,029 Climbing FlightAware ADS-B
Sat 14:35:59 37.8940 -121.8580 75° East 373 429 14,800 2,083 Climbing FlightAware ADS-B
Sat 14:36:33 37.9097 -121.7860 75° East 382 440 16,000 1,781 Climbing FlightAware ADS-B
Sat 14:37:03 37.9238 -121.7190 75° East 397 457 16,700 1,400 Climbing FlightAware ADS-B
Sat 14:37:33 37.9384 -121.6510 75° East 405 466 17,400 1,400 Climbing FlightAware ADS-B
Sat 14:38:03 37.9533 -121.5810 75° East 416 479 18,100 1,279 Climbing FlightAware ADS-B
Sat 14:38:34 37.9689 -121.5080 75° East 429 494 18,700 1,377 Climbing FlightAware ADS-B
Sat 14:39:04 37.9846 -121.4340 75° East 435 501 19,500 1,574 Climbing FlightAware ADS-B
Sat 14:39:35 38.0007 -121.3570 75° East 441 507 20,300 1,558 Climbing FlightAware ADS-B
Sat 14:40:21 38.0253 -121.2400 75° East 448 516 21,500 1,446 Climbing FlightAware ADS-B
Sat 14:40:58 38.0450 -121.1480 75° East 454 522 22,300 1,315 Climbing FlightAware ADS-B
Sat 14:41:34 38.0640 -121.0570 75° East 462 532 23,100 1,200 Climbing FlightAware ADS-B
Sat 14:42:08 38.0830 -120.9670 75° East 472 543 23,700 1,167 Climbing FlightAware ADS-B
Sat 14:42:46 38.1080 -120.8630 73° East 478 550 24,500 1,297 Climbing FlightAware ADS-B
Sat 14:43:22 38.1320 -120.7650 73° East 484 557 25,300 1,324 Climbing FlightAware ADS-B
Sat 14:43:54 38.1530 -120.6810 72° East 487 560 26,000 1,324 Climbing FlightAware ADS-B
Sat 14:44:30 38.1770 -120.5800 73° East 489 563 26,800 1,250 Climbing FlightAware ADS-B
Sat 14:45:06 38.2010 -120.4800 73° East 494 568 27,500 1,099 Climbing FlightAware ADS-B
Sat 14:45:41 38.2230 -120.3850 74° East 499 574 28,100 909 Climbing FlightAware ADS-B
Sat 14:46:12 38.2440 -120.2960 73° East 507 583 28,500 592 Climbing FlightAware ADS-B
Sat 14:46:52 38.2710 -120.1810 73° East 522 601 28,800 868 Climbing FlightAware ADS-B
Sat 14:47:28 38.2960 -120.0760 73° East 521 600 29,600 1,091 Climbing FlightAware ADS-B
Sat 14:47:58 38.3160 -119.9870 74° East 526 605 30,000 1,818 Climbing FlightAware ADS-B
Sat 14:48:34 38.3410 -119.8810 73° East 503 579 31,600 2,333 Climbing FlightAware ADS-B
Sat 14:49:10 38.3640 -119.7840 73° East 488 562 32,800 1,114 Climbing FlightAware ADS-B
Sat 14:49:44 38.3850 -119.6900 74° East 498 573 32,900 353 Climbing FlightAware ADS-B
Sat 14:50:18 38.4070 -119.5940 74° East 505 581 33,200 750 Climbing FlightAware ADS-B
Sat 14:50:56 38.4330 -119.4810 74° East 506 582 33,800 750 Climbing FlightAware ADS-B
Sat 14:51:30 38.4540 -119.3860 74° East 515 593 34,100 300 Climbing FlightAware ADS-B
Sat 14:51:56 38.4710 -119.3120 74° East 522 601 34,100 554 Level FlightAware ADS-B
Sat 14:52:35 38.4970 -119.1900 75° East 524 603 34,700 750 Climbing FlightAware ADS-B
Sat 14:53:08 38.5120 -119.0900 79° East 516 594 35,000 261 Climbing FlightAware ADS-B
Sat 14:53:44 38.5230 -118.9830 82° East 517 595 35,000  Level FlightAware ADS-B
Sat 14:54:21 38.5340 -118.8710 83° East 521 600 35,000  Level FlightAware ADS-B
Sat 14:54:52 38.5430 -118.7760 83° East 530 610 35,000  Level FlightAware ADS-B
Sat 14:55:27 38.5530 -118.6750 83° East 532 612 35,000  Level FlightAware ADS-B
Sat 14:56:14 38.5680 -118.5140 83° East 550 633 35,000  Level FlightAware ADS-B
Sat 14:56:46 38.5780 -118.4110 83° East 554 638 35,000  Level FlightAware ADS-B
Sat 14:57:22 38.5890 -118.2950 83° East 552 635 35,000  Level FlightAware ADS-B
Sat 14:57:58 38.6000 -118.1820 83° East 547 629 35,000  Level FlightAware ADS-B
Sat 14:58:31 38.6100 -118.0730 83° East 542 624 35,000  Level FlightAware ADS-B
Sat 14:59:11 38.6200 -117.9650 83° East 542 624 35,000  Level FlightAware ADS-B
Sat 14:59:47 38.6300 -117.8680 82° East 542 624 35,000  Level FlightAware ADS-B
Sat 15:00:23 38.6390 -117.7700 83° East 542 624 35,000  Level FlightAware ADS-B
Sat 15:00:59 38.6480 -117.6730 83° East 542 624 35,000  Level FlightAware ADS-B
Sat 15:01:35 38.6580 -117.5750 83° East 542 624 35,000  Level FlightAware ADS-B
Sat 15:02:12 38.6670 -117.4750 83° East 542 624 35,000  Level FlightAware ADS-B
Sat 15:02:48 38.6770 -117.3770 83° East 542 624 35,000  Level FlightAware ADS-B
Sat 15:03:24 38.6860 -117.2800 83° East 542 624 35,000  Level FlightAware ADS-B
Sat 15:04:00 38.6950 -117.1820 83° East 542 624 35,000  Level FlightAware ADS-B
Sat 15:04:37 38.7050 -117.0820 83° East 542 624 35,000  Level FlightAware ADS-B
Sat 15:05:11 38.7140 -116.9900 83° East 542 624 35,000  Level FlightAware ADS-B
Sat 15:05:48 38.7230 -116.8890 83° East 542 624 35,000  Level FlightAware ADS-B
Sat 15:06:25 38.7330 -116.7890 83° East 542 624 35,000  Level FlightAware ADS-B
Sat 15:06:59 38.7420 -116.6970 83° East 542 624 35,000  Level FlightAware ADS-B
Sat 15:07:37 38.7520 -116.5940 83° East 542 624 35,000  Level FlightAware ADS-B
Sat 15:08:11 38.7600 -116.5020 84° East 542 624 35,000 1,818 Level FlightAware ADS-B
Sat 15:08:43 38.8431 -116.1697 84° East 557 641 37,000 1,277 Climbing Salt Lake Center
Sat 15:09:45 38.8706 -115.9736 80° East 557 641 37,000  Level Salt Lake Center
Sat 15:10:47 38.9031 -115.7406 80° East 555 639 37,000  Level Salt Lake Center
Sat 15:11:48 38.9297 -115.5456 80° East 554 638 37,000  Level Salt Lake Center
Sat 15:12:50 38.9581 -115.3431 80° East 552 635 37,000  Level Salt Lake Center
Sat 15:13:51 38.9856 -115.1492 80° East 553 636 37,000  Level Salt Lake Center
Sat 15:14:53 39.0100 -114.9606 80° East 541 623 37,000  Level Salt Lake Center
Sat 15:20:49 39.1510 -113.8250 80° East 532 612 37,000  Level FlightAware ADS-B
Sat 15:21:22 39.1620 -113.7380 81° East 532 612 37,000  Level FlightAware ADS-B
Sat 15:22:01 39.1780 -113.6020 81° East 535 616 37,000  Level FlightAware ADS-B
Sat 15:22:33 39.1900 -113.5000 81° East 535 616 37,000  Level FlightAware ADS-B
Sat 15:23:27 39.2090 -113.3430 81° East 533 613 37,000  Level FlightAware ADS-B
Sat 15:24:03 39.2200 -113.2470 82° East 533 613 37,000  Level FlightAware ADS-B
Sat 15:24:31 39.2331 -113.1280 82° East 532 612 37,000  Level FlightAware ADS-B
Sat 15:25:03 39.2445 -113.0270 82° East 532 612 37,000  Level FlightAware ADS-B
Sat 15:25:41 39.2580 -112.9070 82° East 532 612 37,000  Level FlightAware ADS-B
Sat 15:26:12 39.2686 -112.8120 82° East 529 609 37,000  Level FlightAware ADS-B
Sat 15:26:42 39.2790 -112.7180 82° East 530 610 37,000  Level FlightAware ADS-B
Sat 15:27:12 39.2894 -112.6230 82° East 531 611 37,000  Level FlightAware ADS-B
Sat 15:27:31 39.2964 -112.5640 81° East 530 610 37,000  Level FlightAware ADS-B
Sat 15:27:47 39.3055 -112.5150 76° East 533 613 37,000  Level FlightAware ADS-B
Sat 15:27:59 39.3148 -112.4780 72° East 535 616 37,000  Level FlightAware ADS-B
Sat 15:28:12 39.3265 -112.4400 68° East 534 615 37,000  Level FlightAware ADS-B
Sat 15:28:43 39.3586 -112.3520 65° Northeast 534 615 37,000  Level FlightAware ADS-B
Sat 15:29:14 39.3916 -112.2630 64° Northeast 534 615 37,000  Level FlightAware ADS-B
Sat 15:29:44 39.4237 -112.1760 64° Northeast 534 615 37,000  Level FlightAware ADS-B
Sat 15:30:15 39.4564 -112.0860 65° Northeast 532 612 37,000  Level FlightAware ADS-B
Sat 15:30:45 39.4883 -111.9990 65° Northeast 531 611 37,000  Level FlightAware ADS-B
Sat 15:31:16 39.5201 -111.9120 65° Northeast 530 610 37,000  Level FlightAware ADS-B
Sat 15:31:46 39.5516 -111.8250 65° Northeast 530 610 37,000  Level FlightAware ADS-B
Sat 15:32:17 39.5834 -111.7370 65° Northeast 529 609 37,000  Level FlightAware ADS-B
Sat 15:32:48 39.6152 -111.6490 65° Northeast 527 606 37,000  Level FlightAware ADS-B
Sat 15:33:18 39.6464 -111.5620 65° Northeast 527 606 37,000  Level FlightAware ADS-B
Sat 15:33:55 39.6839 -111.4570 65° Northeast 526 605 37,000  Level FlightAware ADS-B
Sat 15:34:25 39.7147 -111.3710 65° Northeast 523 602 37,000  Level FlightAware ADS-B
Sat 15:34:55 39.7454 -111.2850 65° Northeast 522 601 37,000  Level FlightAware ADS-B
Sat 15:35:31 39.7811 -111.1850 65° Northeast 520 598 37,000  Level FlightAware ADS-B
Sat 15:36:03 39.8131 -111.0940 65° Northeast 521 600 37,000  Level FlightAware ADS-B
Sat 15:36:41 39.8516 -110.9850 65° Northeast 518 596 37,000  Level FlightAware ADS-B
Sat 15:37:12 39.8818 -110.8990 65° Northeast 516 594 37,000  Level FlightAware ADS-B
Sat 15:37:52 39.9212 -110.7860 66° East 515 593 37,000  Level FlightAware ADS-B
Sat 15:38:40 39.9670 -110.6550 65° Northeast 513 590 37,000  Level FlightAware ADS-B
Sat 15:39:18 40.0040 -110.5490 65° Northeast 514 592 37,000  Level FlightAware ADS-B
Sat 15:39:49 40.0350 -110.4580 66° East 513 590 37,000  Level FlightAware ADS-B
Sat 15:40:25 40.0660 -110.3690 66° East 513 590 37,000  Level FlightAware ADS-B
Sat 15:40:58 40.0990 -110.2740 66° East 511 588 37,000  Level FlightAware ADS-B
Sat 15:41:35 40.1350 -110.1670 66° East 511 588 37,000  Level FlightAware ADS-B
Sat 15:42:08 40.1630 -110.0780 68° East 511 588 37,000  Level FlightAware ADS-B
Sat 15:42:43 40.1950 -109.9690 69° East 512 589 37,000  Level FlightAware ADS-B
Sat 15:43:21 40.2270 -109.8610 69° East 511 588 37,000  Level FlightAware ADS-B
Sat 15:43:49 40.2510 -109.7760 70° East 510 587 37,000  Level FlightAware ADS-B
Sat 15:44:26 40.2820 -109.6700 69° East 511 588 37,000  Level FlightAware ADS-B
Sat 15:45:02 40.3130 -109.5630 69° East 511 588 37,000  Level FlightAware ADS-B
Sat 15:45:32 40.3380 -109.4770 69° East 511 588 37,000  Level FlightAware ADS-B
Sat 15:46:08 40.3670 -109.3750 70° East 511 588 37,000  Level FlightAware ADS-B
Sat 15:46:47 40.4000 -109.2610 69° East 511 588 37,000  Level FlightAware ADS-B
Sat 15:47:23 40.4280 -109.1590 70° East 511 588 37,000  Level FlightAware ADS-B
Sat 15:47:53 40.4530 -109.0710 70° East 511 588 37,000  Level FlightAware ADS-B
Sat 15:48:28 40.4810 -108.9730 69° East 510 587 37,000  Level FlightAware ADS-B
Sat 15:49:10 40.5170 -108.8440 70° East 511 588 37,000  Level FlightAware ADS-B
Sat 15:49:46 40.5450 -108.7430 70° East 510 587 37,000  Level FlightAware ADS-B
Sat 15:50:22 40.5750 -108.6380 69° East 509 586 37,000  Level FlightAware ADS-B
Sat 15:51:02 40.6060 -108.5220 71° East 509 586 37,000  Level FlightAware ADS-B
Sat 15:51:37 40.6360 -108.4170 69° East 510 587 37,000  Level FlightAware ADS-B
Sat 15:52:12 40.6630 -108.3160 71° East 510 587 37,000  Level FlightAware ADS-B
Sat 15:52:48 40.6920 -108.2110 70° East 508 585 37,000  Level FlightAware ADS-B
Sat 15:53:24 40.7200 -108.1060 71° East 508 585 37,000  Level FlightAware ADS-B
Sat 15:53:49 40.7400 -108.0340 70° East 509 586 37,000  Level FlightAware ADS-B
Sat 15:54:26 40.7660 -107.9380 70° East 509 586 37,000  Level FlightAware ADS-B
Sat 15:55:16 40.8090 -107.7790 70° East 507 583 37,000  Level FlightAware ADS-B
Sat 15:55:53 40.8360 -107.6760 71° East 508 585 37,000  Level FlightAware ADS-B
Sat 15:56:28 40.8610 -107.5830 70° East 508 585 37,000  Level FlightAware ADS-B
Sat 15:57:02 40.8870 -107.4880 70° East 508 585 37,000  Level FlightAware ADS-B
Sat 15:57:39 40.9120 -107.3960 70° East 508 585 37,000  Level FlightAware ADS-B
Sat 15:58:15 40.9370 -107.3060 70° East 508 585 37,000  Level FlightAware ADS-B
Sat 15:58:51 40.9620 -107.2170 70° East 508 585 37,000  Level FlightAware ADS-B
Sat 15:59:27 40.9860 -107.1270 71° East 508 585 37,000  Level FlightAware ADS-B
Sat 16:00:03 41.0110 -107.0380 70° East 508 585 37,000  Level FlightAware ADS-B
Sat 16:00:39 41.0350 -106.9480 71° East 508 585 37,000  Level FlightAware ADS-B
Sat 16:01:14 41.0850 -106.7280 73° East 512 589 37,000  Level FlightAware ADS-B
Sat 16:02:08 41.1230 -106.5800 71° East 511 588 37,000  Level FlightAware ADS-B
Sat 16:02:45 41.1470 -106.4860 71° East 511 588 37,000  Level FlightAware ADS-B
Sat 16:03:24 41.1720 -106.3880 71° East 511 588 37,000  Level FlightAware ADS-B
Sat 16:04:02 41.2110 -106.2310 72° East 506 582 37,000  Level FlightAware ADS-B
Sat 16:04:36 41.2360 -106.1310 72° East 507 583 37,000  Level FlightAware ADS-B
Sat 16:05:08 41.2590 -106.0380 72° East 507 583 37,000  Level FlightAware ADS-B
Sat 16:05:46 41.2870 -105.9250 72° East 505 581 37,000  Level FlightAware ADS-B
Sat 16:06:20 41.3120 -105.8250 72° East 505 581 37,000  Level FlightAware ADS-B
Sat 16:07:00 41.3400 -105.7060 73° East 507 583 37,000  Level FlightAware ADS-B
Sat 16:07:32 41.3600 -105.6100 74° East 506 582 37,000  Level FlightAware ADS-B
Sat 16:08:04 41.3780 -105.5140 76° East 506 582 37,000  Level FlightAware ADS-B
Sat 16:08:39 41.3990 -105.4060 75° East 505 581 37,000  Level FlightAware ADS-B
Sat 16:09:17 41.4200 -105.2960 76° East 503 579 37,000  Level FlightAware ADS-B
Sat 16:09:51 41.4400 -105.1900 76° East 503 579 37,000  Level FlightAware ADS-B
Sat 16:10:29 41.4610 -105.0790 76° East 503 579 37,000  Level FlightAware ADS-B
Sat 16:11:01 41.4790 -104.9820 76° East 503 579 37,000  Level FlightAware ADS-B
Sat 16:11:37 41.5000 -104.8730 76° East 504 580 37,000  Level FlightAware ADS-B
Sat 16:12:12 41.5190 -104.7670 77° East 504 580 37,000  Level FlightAware ADS-B
Sat 16:12:49 41.5400 -104.6560 76° East 504 580 37,000  Level FlightAware ADS-B
Sat 16:13:19 41.5570 -104.5640 76° East 503 579 37,000  Level FlightAware ADS-B
Sat 16:13:56 41.5770 -104.4540 76° East 504 580 37,000  Level FlightAware ADS-B
Sat 16:14:31 41.5960 -104.3480 76° East 504 580 37,000  Level FlightAware ADS-B
Sat 16:15:08 41.6150 -104.2370 77° East 505 581 37,000  Level FlightAware ADS-B
Sat 16:15:42 41.6300 -104.1320 79° East 505 581 37,000  Level FlightAware ADS-B
Sat 16:16:17 41.6450 -104.0250 79° East 504 580 37,000  Level FlightAware ADS-B
Sat 16:16:52 41.6590 -103.9210 80° East 503 579 37,000  Level FlightAware ADS-B
Sat 16:17:29 41.6750 -103.8070 79° East 502 578 37,000  Level FlightAware ADS-B
Sat 16:18:05 41.6910 -103.6970 79° East 501 577 37,000  Level FlightAware ADS-B
Sat 16:18:50 41.7100 -103.5600 79° East 499 574 37,000  Level FlightAware ADS-B
Sat 16:19:25 41.7250 -103.4550 79° East 499 574 37,000  Level FlightAware ADS-B
Sat 16:19:58 41.7390 -103.3560 79° East 498 573 37,000  Level FlightAware ADS-B
Sat 16:20:35 41.7520 -103.2610 80° East 498 573 37,000  Level FlightAware ADS-B
Sat 16:21:12 41.7660 -103.1660 79° East 498 573 37,000  Level FlightAware ADS-B
Sat 16:21:48 41.7800 -103.0730 79° East 498 573 37,000  Level FlightAware ADS-B
Sat 16:22:24 41.7930 -102.9800 79° East 498 573 37,000  Level FlightAware ADS-B
Sat 16:23:00 41.8070 -102.8870 79° East 498 573 37,000  Level FlightAware ADS-B
Sat 16:23:36 41.8200 -102.7940 79° East 498 573 37,000  Level FlightAware ADS-B
Sat 16:24:13 41.8340 -102.6990 79° East 498 573 37,000  Level FlightAware ADS-B
Sat 16:24:49 41.8470 -102.6060 79° East 498 573 37,000  Level FlightAware ADS-B
Sat 16:25:24 41.8600 -102.5160 79° East 498 573 37,000  Level FlightAware ADS-B
Sat 16:26:00 41.8740 -102.4230 79° East 498 573 37,000  Level FlightAware ADS-B
Sat 16:26:36 41.8870 -102.3300 79° East 498 573 37,000  Level FlightAware ADS-B
Sat 16:27:12 41.9010 -102.2370 79° East 498 573 37,000  Level FlightAware ADS-B
Sat 16:27:58 41.9180 -102.1180 79° East 498 573 37,000  Level FlightAware ADS-B
Sat 16:28:35 41.9320 -102.0220 79° East 498 573 37,000  Level FlightAware ADS-B
Sat 16:29:11 41.9450 -101.9290 79° East 498 573 37,000  Level FlightAware ADS-B
Sat 16:29:47 41.9590 -101.8360 79° East 498 573 37,000  Level FlightAware ADS-B
Sat 16:30:28 41.9836 -101.4525 79° East 502 578 37,000  Level Denver Center
Sat 16:31:29 42.0083 -101.2450 81° East 503 579 37,000  Level Denver Center
Sat 16:32:31 42.0264 -101.0953 81° East 504 580 37,000  Level Denver Center
Sat 16:38:46 42.1589 -99.9001 81° East 491 565 37,000  Level FlightAware ADS-B
Sat 16:39:22 42.1703 -99.7913 82° East 490 564 37,000  Level FlightAware ADS-B
Sat 16:39:53 42.1800 -99.6988 82° East 490 564 37,000  Level FlightAware ADS-B
Sat 16:40:23 42.1894 -99.6081 82° East 489 563 37,000  Level FlightAware ADS-B
Sat 16:40:53 42.1988 -99.5169 82° East 490 564 37,000  Level FlightAware ADS-B
Sat 16:41:23 42.2080 -99.4261 82° East 489 563 37,000  Level FlightAware ADS-B
Sat 16:42:05 42.2208 -99.2993 82° East 490 564 37,000  Level FlightAware ADS-B
Sat 16:42:37 42.2303 -99.2036 82° East 491 565 37,000  Level FlightAware ADS-B
Sat 16:43:07 42.2395 -99.1113 82° East 491 565 37,000  Level FlightAware ADS-B
Sat 16:43:38 42.2485 -99.0192 82° East 491 565 37,000  Level FlightAware ADS-B
Sat 16:44:08 42.2574 -98.9280 82° East 491 565 37,000  Level FlightAware ADS-B
Sat 16:44:39 42.2666 -98.8337 82° East 491 565 37,000  Level FlightAware ADS-B
Sat 16:45:17 42.2777 -98.7173 83° East 493 567 37,000  Level FlightAware ADS-B
Sat 16:45:53 42.2881 -98.6066 83° East 493 567 37,000  Level FlightAware ADS-B
Sat 16:46:24 42.2968 -98.5138 83° East 493 567 37,000  Level FlightAware ADS-B
Sat 16:46:54 42.3054 -98.4219 83° East 493 567 37,000  Level FlightAware ADS-B
Sat 16:47:25 42.3140 -98.3286 83° East 493 567 37,000  Level FlightAware ADS-B
Sat 16:47:55 42.3224 -98.2362 83° East 494 568 37,000  Level FlightAware ADS-B
Sat 16:48:37 42.3340 -98.1073 83° East 495 570 37,000  Level FlightAware ADS-B
Sat 16:49:07 42.3423 -98.0150 83° East 495 570 37,000  Level FlightAware ADS-B
Sat 16:49:38 42.3506 -97.9207 83° East 495 570 37,000  Level FlightAware ADS-B
Sat 16:50:09 42.3589 -97.8257 83° East 495 570 37,000  Level FlightAware ADS-B
Sat 16:50:40 42.3672 -97.7304 83° East 496 571 37,000  Level FlightAware ADS-B
Sat 16:51:13 42.3758 -97.6294 83° East 496 571 37,000  Level FlightAware ADS-B
Sat 16:51:43 42.3837 -97.5364 83° East 497 572 37,000  Level FlightAware ADS-B
Sat 16:52:14 42.3917 -97.4418 83° East 498 573 37,000  Level FlightAware ADS-B
Sat 16:52:45 42.3997 -97.3460 84° East 499 574 37,000  Level FlightAware ADS-B
Sat 16:53:16 42.4076 -97.2505 84° East 499 574 37,000  Level FlightAware ADS-B
Sat 16:53:58 42.4183 -97.1194 84° East 500 575 37,000  Level FlightAware ADS-B
Sat 16:54:29 42.4259 -97.0239 84° East 500 575 37,000  Level FlightAware ADS-B
Sat 16:54:59 42.4334 -96.9295 84° East 501 577 37,000  Level FlightAware ADS-B
Sat 16:55:30 42.4408 -96.8351 84° East 501 577 37,000  Level FlightAware ADS-B
Sat 16:56:00 42.4482 -96.7406 84° East 501 577 37,000  Level FlightAware ADS-B
Sat 16:56:31 42.4556 -96.6440 84° East 501 577 37,000  Level FlightAware ADS-B
Sat 16:57:02 42.4628 -96.5501 84° East 501 577 37,000  Level FlightAware ADS-B
Sat 16:57:33 42.4701 -96.4530 84° East 501 577 37,000  Level FlightAware ADS-B
Sat 16:58:03 42.4771 -96.3587 84° East 501 577 37,000  Level FlightAware ADS-B
Sat 16:58:34 42.4843 -96.2619 84° East 501 577 37,000  Level FlightAware ADS-B
Sat 16:59:04 42.4911 -96.1679 84° East 500 575 37,000  Level FlightAware ADS-B
Sat 16:59:35 42.4979 -96.0733 84° East 500 575 37,000  Level FlightAware ADS-B
Sat 17:00:05 42.5046 -95.9783 85° East 500 575 37,000  Level FlightAware ADS-B
Sat 17:00:36 42.5112 -95.8841 85° East 500 575 37,000  Level FlightAware ADS-B
Sat 17:01:07 42.5180 -95.7877 85° East 499 574 37,000  Level FlightAware ADS-B
Sat 17:01:38 42.5246 -95.6901 85° East 499 574 37,000  Level FlightAware ADS-B
Sat 17:02:08 42.5310 -95.5970 85° East 498 573 37,000  Level FlightAware ADS-B
Sat 17:02:38 42.5373 -95.5028 85° East 498 573 37,000  Level FlightAware ADS-B
Sat 17:02:51 42.5395 -95.4693 85° East 497 572 37,000  Level FlightAware ADS-B (LPVM)
Sat 17:03:10 42.5437 -95.4056 85° East 496 571 37,000  Level FlightAware ADS-B
Sat 17:03:26 42.5469 -95.3566 85° East 494 568 37,000  Level FlightAware ADS-B (LPVM)
Sat 17:03:40 42.5498 -95.3121 85° East 493 567 37,000  Level FlightAware ADS-B
Sat 17:04:03 42.5543 -95.2416 85° East 492 566 37,000  Level FlightAware ADS-B (LPVM)
Sat 17:04:11 42.5558 -95.2189 85° East 492 566 37,000  Level FlightAware ADS-B
Sat 17:04:41 42.5616 -95.1272 85° East 490 564 37,000  Level FlightAware ADS-B
Sat 17:04:42 42.5619 -95.1238 84° East 490 564 37,000  Level FlightAware ADS-B (LPVM)
Sat 17:05:11 42.5674 -95.0354 85° East 490 564 37,000  Level FlightAware ADS-B
Sat 17:05:33 42.5716 -94.9680 85° East 489 563 37,000  Level FlightAware ADS-B (LPVM)
Sat 17:05:41 42.5731 -94.9433 85° East 489 563 37,000  Level FlightAware ADS-B
Sat 17:06:11 42.5787 -94.8515 85° East 488 562 37,000  Level FlightAware ADS-B
Sat 17:06:21 42.5799 -94.8320 85° East 488 562 37,000  Level FlightAware ADS-B (LPVM)
Sat 17:06:41 42.5843 -94.7590 85° East 488 562 37,000  Level FlightAware ADS-B
Sat 17:06:52 42.5861 -94.7282 85° East 488 562 37,000  Level FlightAware ADS-B (LPVM)
Sat 17:07:12 42.5899 -94.6653 85° East 488 562 37,000  Level FlightAware ADS-B
Sat 17:07:38 42.5945 -94.5874 85° East 489 563 37,000  Level FlightAware ADS-B (LPVM)
Sat 17:07:43 42.5955 -94.5703 85° East 489 563 37,000  Level FlightAware ADS-B
Sat 17:08:11 42.6003 -94.4868 86° East 489 563 37,000  Level FlightAware ADS-B (LPVM)
Sat 17:08:14 42.6007 -94.4783 86° East 488 562 37,000  Level FlightAware ADS-B
Sat 17:08:44 42.6059 -94.3869 86° East 488 562 37,000  Level FlightAware ADS-B
Sat 17:08:51 42.6065 -94.3774 85° East 488 562 37,000  Level FlightAware ADS-B (LPVM)
Sat 17:09:14 42.6112 -94.2947 86° East 489 563 37,000  Level FlightAware ADS-B
Sat 17:09:22 42.6125 -94.2691 86° East 488 562 37,000  Level FlightAware ADS-B (LPVM)
Sat 17:09:58 42.6136 -94.1662 89° East 491 565 37,000  Level FlightAware ADS-B (LPVM)
Sat 17:10:10 42.6134 -94.1209 90° East 490 564 37,000  Level FlightAware ADS-B
Sat 17:10:43 42.6133 -94.0207 90° East 492 566 37,000  Level FlightAware ADS-B
Sat 17:11:13 42.6135 -93.9282 90° East 491 565 37,000  Level FlightAware ADS-B
Sat 17:11:40 42.6139 -93.8576 90° East 490 564 37,000  Level FlightAware ADS-B (LPVM)
Sat 17:11:54 42.6142 -93.8024 90° East 490 564 37,000  Level FlightAware ADS-B
Sat 17:12:42 42.6150 -93.6570 90° East 489 563 37,000  Level FlightAware ADS-B
Sat 17:13:18 42.6160 -93.5470 89° East 489 563 37,000  Level FlightAware ADS-B
Sat 17:13:55 42.6160 -93.4330 90° East 489 563 37,000  Level FlightAware ADS-B
Sat 17:14:01 42.6164 -93.4153 88° East 489 563 37,000  Level FlightAware ADS-B (LPVM)
Sat 17:14:31 42.6170 -93.3240 89° East 490 564 37,000  Level FlightAware ADS-B
Sat 17:14:52 42.6167 -93.2588 90° East 490 564 37,000  Level FlightAware ADS-B (LPVM)
Sat 17:15:38 42.6170 -93.1220 90° East 490 564 37,000  Level FlightAware ADS-B
Sat 17:16:15 42.6170 -93.0110 90° East 491 565 37,000  Level FlightAware ADS-B
Sat 17:16:52 42.6160 -92.8900 91° East 491 565 37,000  Level FlightAware ADS-B
Sat 17:17:23 42.6162 -92.8158 90° East 491 565 37,000  Level FlightAware ADS-B (LPVM)
Sat 17:17:53 42.6158 -92.7197 90° East 490 564 37,000  Level FlightAware ADS-B (LPVM)
Sat 17:18:36 42.6150 -92.5730 90° East 490 564 37,000  Level FlightAware ADS-B
Sat 17:19:09 42.6145 -92.4700 90° East 490 564 37,000  Level FlightAware ADS-B (LPVM)
Sat 17:19:40 42.6141 -92.3970 90° East 490 564 37,000  Level FlightAware ADS-B (LPVM)
Sat 17:20:13 42.6134 -92.3013 91° East 490 564 37,000  Level FlightAware ADS-B (LPVM)
Sat 17:20:57 42.6120 -92.1440 91° East 490 564 37,000  Level FlightAware ADS-B
Sat 17:21:00 42.6121 -92.1317 90° East 490 564 37,000  Level FlightAware ADS-B (LPVM)
Sat 17:21:30 42.6110 -92.0410 91° East 490 564 37,000  Level FlightAware ADS-B
Sat 17:21:40 42.6108 -92.0053 90° East 490 564 37,000  Level FlightAware ADS-B (LPVM)
Sat 17:22:19 42.6096 -91.8873 91° East 491 565 37,000  Level FlightAware ADS-B (LPVM)
Sat 17:22:53 42.6083 -91.7812 91° East 492 566 37,000  Level FlightAware ADS-B (LPVM)
Sat 17:23:23 42.6072 -91.6897 91° East 492 566 37,000  Level FlightAware ADS-B (LPVM)
Sat 17:23:53 42.6060 -91.5979 91° East 493 567 37,000  Level FlightAware ADS-B (LPVM)
Sat 17:24:24 42.6050 -91.5070 91° East 493 567 37,000  Level FlightAware ADS-B
Sat 17:24:32 42.6043 -91.4857 92° East 493 567 37,000  Level FlightAware ADS-B (LPVM)
Sat 17:25:12 42.6023 -91.3526 91° East 492 566 37,000  Level FlightAware ADS-B (LPVM)
Sat 17:25:43 42.6009 -91.2606 91° East 492 566 37,000  Level FlightAware ADS-B (LPVM)
Sat 17:26:22 42.5987 -91.1365 91° East 492 566 37,000  Level FlightAware ADS-B (LPVM)
Sat 17:26:53 42.5972 -91.0528 91° East 492 566 37,000  Level FlightAware ADS-B (LPVM)
Sat 17:27:33 42.5948 -90.9247 91° East 492 566 37,000  Level FlightAware ADS-B (LPVM)
Sat 17:28:06 42.5926 -90.8191 92° East 492 566 37,000  Level FlightAware ADS-B (LPVM)
Sat 17:28:41 42.5908 -90.7310 92° East 492 566 37,000  Level FlightAware ADS-B (LPVM)
Sat 17:29:38 42.5870 -90.5400 91° East 492 566 37,000  Level FlightAware ADS-B
Sat 17:30:14 42.5840 -90.4220 92° East 493 567 37,000  Level FlightAware ADS-B
Sat 17:30:51 42.5810 -90.3090 92° East 493 567 37,000  Level FlightAware ADS-B
Sat 17:31:24 42.5780 -90.2080 92° East 493 567 37,000  Level FlightAware ADS-B
Sat 17:31:59 42.5760 -90.1010 91° East 493 567 37,000  Level FlightAware ADS-B
Sat 17:32:36 42.5730 -89.9860 92° East 492 566 37,000  Level FlightAware ADS-B
Sat 17:33:08 42.5700 -89.8880 92° East 492 566 37,000  Level FlightAware ADS-B
Sat 17:33:43 42.5670 -89.7810 92° East 491 565 37,000  Level FlightAware ADS-B
Sat 17:34:21 42.5630 -89.6610 93° East 491 565 37,000  Level FlightAware ADS-B
Sat 17:34:54 42.5600 -89.5610 92° East 491 565 37,000  Level FlightAware ADS-B
Sat 17:35:29 42.5570 -89.4540 92° East 491 565 37,000  Level FlightAware ADS-B
Sat 17:36:03 42.5530 -89.3480 93° East 492 566 37,000  Level FlightAware ADS-B
Sat 17:36:40 42.5490 -89.2370 93° East 493 567 37,000 162 Level FlightAware ADS-B
Sat 17:37:17 42.5450 -89.1220 93° East 494 568 37,200 696 Climbing FlightAware ADS-B
Sat 17:37:49 42.5420 -89.0230 92° East 492 566 37,800 1,075 Climbing FlightAware ADS-B
Sat 17:38:24 42.5380 -88.9160 93° East 488 562 38,400 943 Climbing FlightAware ADS-B
Sat 17:38:59 42.5340 -88.8080 93° East 487 560 38,900 507 Climbing FlightAware ADS-B
Sat 17:39:35 42.5290 -88.6990 94° East 486 559 39,000 87 Climbing FlightAware ADS-B
Sat 17:40:08 42.5260 -88.6000 92° East 485 558 39,000  Level FlightAware ADS-B
Sat 17:40:45 42.5210 -88.4880 93° East 486 559 39,000  Level FlightAware ADS-B
Sat 17:41:22 42.5160 -88.3760 93° East 489 563 39,000  Level FlightAware ADS-B
Sat 17:41:54 42.5120 -88.2770 93° East 490 564 39,000  Level FlightAware ADS-B
Sat 17:42:29 42.5080 -88.1710 93° East 491 565 39,000  Level FlightAware ADS-B
Sat 17:43:00 42.5030 -88.0760 94° East 492 566 39,000  Level FlightAware ADS-B
Sat 17:43:39 42.5000 -87.9560 92° East 492 566 39,000  Level FlightAware ADS-B
Sat 17:44:15 42.5000 -87.8450 90° East 491 565 39,000  Level FlightAware ADS-B
Sat 17:44:46 42.5000 -87.7500 90° East 491 565 39,000  Level FlightAware ADS-B
Sat 17:45:25 42.5000 -87.6310 90° East 493 567 39,000  Level FlightAware ADS-B
Sat 17:45:57 42.4990 -87.5320 91° East 493 567 39,000  Level FlightAware ADS-B
Sat 17:46:34 42.4990 -87.4200 90° East 495 570 39,000  Level FlightAware ADS-B
Sat 17:47:09 42.4980 -87.3120 91° East 496 571 39,000  Level FlightAware ADS-B
Sat 17:47:46 42.4970 -87.1950 91° East 497 572 39,000  Level FlightAware ADS-B
Sat 17:48:19 42.4970 -87.0960 90° East 497 572 39,000  Level FlightAware ADS-B
Sat 17:48:55 42.4960 -86.9810 91° East 497 572 39,000  Level FlightAware ADS-B
Sat 17:49:29 42.4950 -86.8740 91° East 498 573 39,000  Level FlightAware ADS-B
Sat 17:50:02 42.4940 -86.7710 91° East 499 574 39,000  Level FlightAware ADS-B
Sat 17:50:39 42.4930 -86.6590 91° East 498 573 39,000  Level FlightAware ADS-B
Sat 17:51:14 42.4910 -86.5470 91° East 498 573 39,000  Level FlightAware ADS-B
Sat 17:51:51 42.4900 -86.4320 91° East 497 572 39,000  Level FlightAware ADS-B
Sat 17:52:23 42.4880 -86.3350 92° East 497 572 39,000  Level FlightAware ADS-B
Sat 17:52:59 42.4870 -86.2250 91° East 498 573 39,000  Level FlightAware ADS-B
Sat 17:53:36 42.4850 -86.1100 91° East 498 573 39,000  Level FlightAware ADS-B
Sat 17:54:10 42.4830 -86.0020 91° East 498 573 39,000  Level FlightAware ADS-B
Sat 17:54:42 42.4810 -85.9000 91° East 497 572 39,000  Level FlightAware ADS-B
Sat 17:55:19 42.4790 -85.7870 91° East 497 572 39,000  Level FlightAware ADS-B
Sat 17:55:56 42.4770 -85.6730 91° East 495 570 39,000  Level FlightAware ADS-B
Sat 17:56:28 42.4750 -85.5720 92° East 494 568 39,000  Level FlightAware ADS-B
Sat 17:57:01 42.4730 -85.4720 92° East 491 565 39,000  Level FlightAware ADS-B
Sat 17:57:42 42.4700 -85.3470 92° East 489 563 39,000  Level FlightAware ADS-B
Sat 17:58:13 42.4680 -85.2520 92° East 487 560 39,000  Level FlightAware ADS-B
Sat 17:58:50 42.4650 -85.1420 92° East 486 559 39,000  Level FlightAware ADS-B
Sat 17:59:27 42.4620 -85.0300 92° East 485 558 39,000  Level FlightAware ADS-B
Sat 17:59:59 42.4600 -84.9330 92° East 484 557 39,000  Level FlightAware ADS-B
Sat 18:00:33 42.4570 -84.8320 92° East 485 558 39,000  Level FlightAware ADS-B
Sat 18:01:10 42.4540 -84.7220 92° East 485 558 39,000  Level FlightAware ADS-B
Sat 18:01:47 42.4500 -84.6070 93° East 486 559 39,000  Level FlightAware ADS-B
Sat 18:02:19 42.4440 -84.5080 95° East 487 560 39,000  Level FlightAware ADS-B
Sat 18:02:55 42.4370 -84.3990 95° East 487 560 39,000  Level FlightAware ADS-B
Sat 18:03:32 42.4300 -84.2900 95° East 488 562 39,000  Level FlightAware ADS-B
Sat 18:04:04 42.4240 -84.1890 95° East 489 563 39,000  Level FlightAware ADS-B
Sat 18:04:40 42.4180 -84.0790 94° East 489 563 39,000  Level FlightAware ADS-B
Sat 18:05:16 42.4110 -83.9680 95° East 489 563 39,000  Level FlightAware ADS-B
Sat 18:05:48 42.4050 -83.8700 95° East 489 563 39,000  Level FlightAware ADS-B
Sat 18:06:26 42.3980 -83.7570 95° East 489 563 39,000  Level FlightAware ADS-B
Sat 18:06:58 42.3910 -83.6580 95° East 490 564 39,000  Level FlightAware ADS-B
Sat 18:07:34 42.3840 -83.5480 95° East 491 565 39,000  Level FlightAware ADS-B
Sat 18:08:09 42.3770 -83.4430 95° East 491 565 39,000  Level FlightAware ADS-B
Sat 18:08:47 42.3690 -83.3260 95° East 492 566 39,000  Level FlightAware ADS-B
Sat 18:09:19 42.3620 -83.2270 95° East 493 567 39,000  Level FlightAware ADS-B
Sat 18:09:55 42.3550 -83.1170 95° East 494 568 39,000  Level FlightAware ADS-B
Sat 18:10:31 42.3470 -83.0090 96° East 496 571 39,000  Level FlightAware ADS-B
Sat 18:11:03 42.3400 -82.9080 95° East 497 572 39,000  Level FlightAware ADS-B
Sat 18:11:41 42.3320 -82.7910 95° East 499 574 39,000  Level FlightAware ADS-B
Sat 18:12:13 42.3250 -82.6920 95° East 500 575 39,000  Level FlightAware ADS-B
Sat 18:12:49 42.3160 -82.5790 96° East 500 575 39,000  Level FlightAware ADS-B
Sat 18:13:25 42.3080 -82.4700 96° East 501 577 39,000  Level FlightAware ADS-B
Sat 18:13:57 42.3010 -82.3740 96° East 502 578 39,000  Level FlightAware ADS-B
Sat 18:14:34 42.2910 -82.2530 96° East 501 577 39,000  Level FlightAware ADS-B
Sat 18:15:09 42.2830 -82.1440 96° East 501 577 39,000  Level FlightAware ADS-B
Sat 18:15:47 42.2740 -82.0310 96° East 501 577 39,000  Level FlightAware ADS-B
Sat 18:16:25 42.2650 -81.9110 96° East 500 575 39,000  Level FlightAware ADS-B
Sat 18:17:01 42.2560 -81.7980 96° East 501 577 39,000  Level FlightAware ADS-B
Sat 18:17:36 42.2470 -81.6880 96° East 501 577 39,000  Level FlightAware ADS-B
Sat 18:18:13 42.2370 -81.5740 97° East 501 577 39,000  Level FlightAware ADS-B
Sat 18:18:50 42.2280 -81.4610 96° East 501 577 39,000  Level FlightAware ADS-B
Sat 18:19:20 42.2190 -81.3650 97° East 501 577 39,000  Level FlightAware ADS-B
Sat 18:19:58 42.2090 -81.2470 96° East 501 577 39,000  Level FlightAware ADS-B
Sat 18:20:33 42.2000 -81.1400 96° East 502 578 39,000  Level FlightAware ADS-B
Sat 18:21:09 42.1900 -81.0300 97° East 503 579 39,000  Level FlightAware ADS-B
Sat 18:21:41 42.1810 -80.9280 97° East 503 579 39,000  Level FlightAware ADS-B
Sat 18:22:16 42.1720 -80.8180 96° East 503 579 39,000  Level FlightAware ADS-B
Sat 18:22:55 42.1610 -80.7000 97° East 501 577 39,000  Level FlightAware ADS-B
Sat 18:23:26 42.1520 -80.6070 97° East 499 574 39,000  Level FlightAware ADS-B
Sat 18:24:03 42.1420 -80.4940 97° East 498 573 39,000  Level FlightAware ADS-B
Sat 18:24:39 42.1310 -80.3800 97° East 497 572 39,000  Level FlightAware ADS-B
Sat 18:25:15 42.1210 -80.2700 97° East 497 572 39,000  Level FlightAware ADS-B
Sat 18:25:46 42.1120 -80.1740 97° East 497 572 39,000  Level FlightAware ADS-B
Sat 18:26:24 42.1010 -80.0580 97° East 497 572 39,000  Level FlightAware ADS-B
Sat 18:26:58 42.0900 -79.9530 98° East 495 570 39,000  Level FlightAware ADS-B
Sat 18:27:31 42.0810 -79.8530 97° East 496 571 39,000  Level FlightAware ADS-B
Sat 18:28:07 42.0700 -79.7440 98° East 496 571 39,000  Level FlightAware ADS-B
Sat 18:28:44 42.0580 -79.6310 98° East 496 571 39,000  Level FlightAware ADS-B
Sat 18:29:17 42.0480 -79.5290 97° East 497 572 39,000  Level FlightAware ADS-B
Sat 18:29:53 42.0370 -79.4220 98° East 497 572 39,000  Level FlightAware ADS-B
Sat 18:30:28 42.0260 -79.3130 98° East 498 573 39,000  Level FlightAware ADS-B
Sat 18:31:04 42.0140 -79.2020 98° East 497 572 39,000  Level FlightAware ADS-B
Sat 18:31:36 42.0040 -79.1040 98° East 498 573 39,000  Level FlightAware ADS-B
Sat 18:32:12 41.9930 -78.9960 98° East 499 574 39,000  Level FlightAware ADS-B
Sat 18:32:48 41.9810 -78.8860 98° East 498 573 39,000  Level FlightAware ADS-B
Sat 18:33:24 41.9690 -78.7740 98° East 497 572 39,000  Level FlightAware ADS-B
Sat 18:33:56 41.9590 -78.6800 98° East 497 572 39,000  Level FlightAware ADS-B
Sat 18:34:32 41.9470 -78.5720 98° East 497 572 39,000  Level FlightAware ADS-B
Sat 18:35:09 41.9340 -78.4600 99° East 495 570 39,000  Level FlightAware ADS-B
Sat 18:35:45 41.9220 -78.3470 98° East 494 568 39,000  Level FlightAware ADS-B
Sat 18:36:18 41.9110 -78.2490 99° East 492 566 39,000  Level FlightAware ADS-B
Sat 18:36:53 41.8980 -78.1420 99° East 491 565 39,000  Level FlightAware ADS-B
Sat 18:37:29 41.8860 -78.0330 98° East 491 565 39,000  Level FlightAware ADS-B
Sat 18:38:01 41.8750 -77.9350 99° East 491 565 39,000  Level FlightAware ADS-B
Sat 18:38:37 41.8580 -77.8290 102° East 482 555 39,000  Level FlightAware ADS-B
Sat 18:39:15 41.8320 -77.7230 108° East 476 548 39,000  Level FlightAware ADS-B
Sat 18:39:47 41.8090 -77.6370 110° East 476 548 39,000  Level FlightAware ADS-B
Sat 18:40:23 41.7830 -77.5410 110° East 476 548 39,000  Level FlightAware ADS-B
Sat 18:40:59 41.7550 -77.4360 110° East 476 548 39,000  Level FlightAware ADS-B
Sat 18:41:35 41.7280 -77.3360 110° East 476 548 39,000  Level FlightAware ADS-B
Sat 18:42:07 41.7040 -77.2460 110° East 476 548 39,000  Level FlightAware ADS-B
Sat 18:42:43 41.6780 -77.1470 109° East 478 550 39,000  Level FlightAware ADS-B
Sat 18:43:20 41.6500 -77.0460 110° East 477 549 39,000  Level FlightAware ADS-B
Sat 18:43:52 41.6260 -76.9560 110° East 478 550 39,000  Level FlightAware ADS-B
Sat 18:44:43 41.5890 -76.8200 110° East 479 551 39,000  Level FlightAware ADS-B
Sat 18:45:25 41.5590 -76.7110 110° East 480 552 39,000  Level FlightAware ADS-B
Sat 18:45:58 41.5320 -76.6120 110° East 481 554 39,000  Level FlightAware ADS-B
Sat 18:46:33 41.5050 -76.5150 110° East 482 555 39,000  Level FlightAware ADS-B
Sat 18:47:08 41.4780 -76.4170 110° East 482 555 39,000  Level FlightAware ADS-B
Sat 18:47:44 41.4500 -76.3190 111° Southeast 483 556 39,000 -740 Level FlightAware ADS-B
Sat 18:48:21 41.4190 -76.2070 110° East 492 566 38,100 -1,920 Descending FlightAware ADS-B
Sat 18:48:59 41.3890 -76.1010 111° Southeast 493 567 36,600 -2,416 Descending FlightAware ADS-B
Sat 18:49:38 41.3580 -75.9890 110° East 490 564 35,000 -3,081 Descending FlightAware ADS-B
Sat 18:50:13 41.3310 -75.8940 111° Southeast 491 565 32,800 -3,000 Descending FlightAware ADS-B
Sat 18:50:46 41.3050 -75.8000 110° East 489 563 31,600 -2,783 Descending FlightAware ADS-B
Sat 18:51:22 41.2750 -75.7000 112° Southeast 493 567 29,600 -3,123 Descending FlightAware ADS-B
Sat 18:51:59 41.2420 -75.5950 113° Southeast 485 558 27,800 -3,176 Descending FlightAware ADS-B
Sat 18:52:30 41.2140 -75.5130 114° Southeast 492 566 26,000 -3,391 Descending FlightAware ADS-B
Sat 18:53:08 41.1780 -75.4050 114° Southeast 493 567 23,900 -2,451 Descending FlightAware ADS-B
Sat 18:53:41 41.1480 -75.3170 114° Southeast 486 559 23,100 -771 Descending FlightAware ADS-B
Sat 18:54:18 41.1150 -75.2180 114° Southeast 485 558 23,000 -90 Descending FlightAware ADS-B
Sat 18:54:48 41.0870 -75.1350 114° Southeast 484 557 23,000  Level FlightAware ADS-B
Sat 18:55:28 41.0510 -75.0290 114° Southeast 479 551 23,000  Level FlightAware ADS-B
Sat 18:56:04 41.0180 -74.9340 115° Southeast 479 551 23,000  Level FlightAware ADS-B
Sat 18:56:35 40.9950 -74.8430 108° East 487 560 23,000 -529 Level FlightAware ADS-B
Sat 18:57:12 40.9800 -74.7380 101° East 493 567 22,400 -1,151 Descending FlightAware ADS-B
Sat 18:57:48 40.9690 -74.6300 98° East 477 549 21,600 -1,167 Descending FlightAware ADS-B
Sat 18:58:24 40.9590 -74.5270 97° East 469 540 21,000 -1,385 Descending FlightAware ADS-B
Sat 18:58:53 40.9500 -74.4470 98° East 453 521 20,100 -1,727 Descending FlightAware ADS-B
Sat 18:59:30 40.9390 -74.3460 98° East 436 502 19,100 -880 Descending FlightAware ADS-B
Sat 19:00:08 40.9279 -74.2492 99° East 396 456 19,000 -164 Descending FlightAware ADS-B
Sat 19:00:43 40.9098 -74.1732 107° East 354 407 18,900 -636 Descending FlightAware ADS-B
Sat 19:01:14 40.8923 -74.1124 111° Southeast 340 391 18,300 -1,294 Descending FlightAware ADS-B
Sat 19:01:34 40.8811 -74.0736 111° Southeast 336 387 17,800 -1,714 Descending FlightAware ADS-B
Sat 19:01:49 40.8696 -74.0482 121° Southeast 331 381 17,300 -1,826 Descending FlightAware ADS-B
Sat 19:01:57 40.8610 -74.0369 135° Southeast 325 374 17,100 -1,636 Descending FlightAware ADS-B
Sat 19:02:00 40.8574 -74.0332 142° Southeast 321 369 17,000 -1,500 Descending FlightAware ADS-B
Sat 19:02:09 40.8460 -74.0246 150° Southeast 316 364 16,800 -1,412 Descending FlightAware ADS-B
Sat 19:02:17 40.8355 -74.0198 161° South 312 359 16,600 -1,667 Descending FlightAware ADS-B
Sat 19:02:27 40.8217 -74.0166 170° South 307 353 16,300 -732 Descending FlightAware ADS-B
Sat 19:02:58 40.7781 -74.0111 175° South 303 349 16,100 -762 Descending FlightAware ADS-B
Sat 19:03:30 40.7341 -74.0054 174° South 301 346 15,500 -1,333 Descending FlightAware ADS-B
Sat 19:04:10 40.6820 -73.9980 174° South 295 339 14,500 -1,500 Descending FlightAware ADS-B
Sat 19:04:50 40.6258 -73.9881 172° South 298 343 13,500 -1,077 Descending FlightAware ADS-B
Sat 19:05:28 40.5749 -73.9776 171° South 289 333 13,100 -258 Descending FlightAware ADS-B
Sat 19:06:23 40.5200 -73.9090 136° Southeast 309 356 13,100  Level FlightAware ADS-B
Sat 19:06:39 40.5040 -73.8910 139° Southeast 300 345 13,100  Level FlightAware ADS-B
Sat 19:06:50 40.4880 -73.8820 157° South 291 335 13,100 240 Level FlightAware ADS-B
Sat 19:07:04 40.4710 -73.8810 177° South 285 328 13,200 -118 Climbing FlightAware ADS-B
Sat 19:07:41 40.4230 -73.8840 183° South 283 326 13,000 -811 Descending FlightAware ADS-B
Sat 19:08:18 40.3750 -73.8880 184° South 278 320 12,200 -1,333 Descending FlightAware ADS-B
Sat 19:08:53 40.3310 -73.8910 183° South 276 318 11,400 -940 Descending FlightAware ADS-B
Sat 19:09:41 40.2710 -73.8800 172° South 285 328 10,900 -643 Descending FlightAware ADS-B
Sat 19:09:49 40.2630 -73.8690 134° Southeast 292 336 10,800 -1,143 Descending FlightAware ADS-B
Sat 19:10:02 40.2540 -73.8490 121° Southeast 303 349 10,500 -1,241 Descending FlightAware ADS-B
Sat 19:10:18 40.2520 -73.8200 95° East 313 360 10,200 -828 Descending FlightAware ADS-B
Sat 19:10:31 40.2560 -73.7960 78° East 315 362 10,100 -750 Descending FlightAware ADS-B
Sat 19:10:50 40.2640 -73.7630 72° East 315 362 9,800 -857 Descending FlightAware ADS-B
Sat 19:11:06 40.2710 -73.7320 74° East 314 361 9,600 -682 Descending FlightAware ADS-B
Sat 19:11:34 40.2830 -73.6850 71° East 318 366 9,300 -667 Descending FlightAware ADS-B
Sat 19:11:42 40.2920 -73.6710 50° Northeast 316 364 9,200 -857 Descending FlightAware ADS-B
Sat 19:11:55 40.3080 -73.6560 36° Northeast 310 357 9,000 -727 Descending FlightAware ADS-B
Sat 19:12:15 40.3330 -73.6390 27° Northeast 301 346 8,800 -682 Descending FlightAware ADS-B
Sat 19:12:39 40.3630 -73.6190 27° Northeast 289 333 8,500 -558 Descending FlightAware ADS-B
Sat 19:12:58 40.3860 -73.6030 28° Northeast 279 321 8,400 -439 Descending FlightAware ADS-B
Sat 19:13:20 40.4100 -73.5860 28° Northeast 275 316 8,200 -429 Descending FlightAware ADS-B
Sat 19:13:40 40.4330 -73.5710 26° Northeast 273 314 8,100 -632 Descending FlightAware ADS-B
Sat 19:13:58 40.4530 -73.5580 26° Northeast 271 312 7,800 -1,125 Descending FlightAware ADS-B
Sat 19:14:28 40.4870 -73.5360 26° Northeast 275 316 7,200 -1,154 Descending FlightAware ADS-B
Sat 19:14:50 40.5120 -73.5200 26° Northeast 276 318 6,800 -1,024 Descending FlightAware ADS-B
Sat 19:15:09 40.5350 -73.5050 26° Northeast 275 316 6,500 -878 Descending FlightAware ADS-B
Sat 19:15:31 40.5590 -73.4900 25° Northeast 273 314 6,200 -878 Descending FlightAware ADS-B
Sat 19:15:50 40.5800 -73.4770 25° Northeast 271 312 5,900 -1,000 Descending FlightAware ADS-B
Sat 19:16:07 40.6010 -73.4640 25° Northeast 270 311 5,600 -1,034 Descending FlightAware ADS-B
Sat 19:16:19 40.6140 -73.4580 19° North 267 307 5,400 -1,000 Descending FlightAware ADS-B
Sat 19:16:25 40.6210 -73.4580 360° North 264 304 5,300 -643 Descending FlightAware ADS-B
Sat 19:16:47 40.6480 -73.4620 354° North 261 300 5,100 -255 Descending FlightAware ADS-B
Sat 19:17:12 40.6790 -73.4680 352° North 264 304 5,100 -136 Level FlightAware ADS-B
Sat 19:17:31 40.7000 -73.4740 348° North 259 298 5,000 -444 Descending FlightAware ADS-B
Sat 19:17:39 40.7100 -73.4790 339° North 254 292 4,900 -857 Descending FlightAware ADS-B
Sat 19:17:59 40.7310 -73.4930 333° Northwest 251 289 4,600 -878 Descending FlightAware ADS-B
Sat 19:18:20 40.7530 -73.5070 334° Northwest 246 283 4,300 -750 Descending FlightAware ADS-B
Sat 19:18:39 40.7700 -73.5200 330° Northwest 228 262 4,100 -444 Descending FlightAware ADS-B
Sat 19:18:47 40.7760 -73.5270 319° Northwest 214 246 4,100 -750 Level FlightAware ADS-B
Sat 19:19:03 40.7860 -73.5440 308° West 207 238 3,800 -1,071 Descending FlightAware ADS-B
Sat 19:19:15 40.7910 -73.5560 299° West 200 230 3,600 -938 Descending FlightAware ADS-B
Sat 19:19:35 40.7960 -73.5790 286° West 197 227 3,300 -1,029 Descending FlightAware ADS-B
Sat 19:19:50 40.7990 -73.5980 282° West 191 220 3,000 -1,135 Descending FlightAware ADS-B
Sat 19:20:12 40.7930 -73.6200 250° West 174 200 2,600 -1,000 Descending FlightAware ADS-B
Sat 19:20:32 40.7860 -73.6370 241° Southwest 170 196 2,300 -828 Descending FlightAware ADS-B
Sat 19:20:41 40.7810 -73.6440 227° Southwest 167 192 2,200 -571 Descending FlightAware ADS-B
Sat 19:20:53 40.7740 -73.6520 221° Southwest 168 193 2,100 -171 Descending FlightAware ADS-B
Sat 19:21:16 40.7590 -73.6670 217° Southwest 166 191 2,100  Level FlightAware ADS-B
Sat 19:21:29 40.7510 -73.6720 205° Southwest 158 182 2,100 182 Level FlightAware ADS-B
Sat 19:21:49 40.7390 -73.6820 212° Southwest 143 165 2,200 -162 Climbing FlightAware ADS-B
Sat 19:22:06 40.7290 -73.6890 208° Southwest 131 151 2,000 -571 Descending FlightAware ADS-B
Sat 19:22:31 40.7180 -73.6980 212° Southwest 117 135 1,800 -612 Descending FlightAware ADS-B
Sat 19:22:55 40.7060 -73.7070 210° Southwest 118 136 1,500 -686 Descending FlightAware ADS-B
Sat 19:23:06 40.7010 -73.7110 211° Southwest 117 135 1,400 -563 Descending FlightAware ADS-B
Sat 19:23:27 40.6910 -73.7190 211° Southwest 117 135 1,200 -533 Descending FlightAware ADS-B
Sat 19:23:51 40.6800 -73.7280 212° Southwest 118 136 1,000 -500 Descending FlightAware ADS-B
Sat 19:24:03 40.6740 -73.7320 207° Southwest 121 139 900 -750 Descending FlightAware ADS-B
Sat 19:24:23 40.6640 -73.7400 211° Southwest 125 144 600 -682 Descending FlightAware ADS-B
Sat 19:24:47 40.6520 -73.7490 210° Southwest 132 152 400 -545 Descending FlightAware ADS-B
Sat 19:25:07 40.6420 -73.7580 214° Southwest 136 157 200 -600 Descending FlightAware ADS-B
Sat 19:25:27 40.6330 -73.7650 211° Southwest 76 87 -600 Descending FlightAware ADS-B

Login

Don't have an account? Register now (free) for customized features, flight alerts, and more!